| time (UTC) | temp F | wind direction | speed MPH | gust MPH | rain 1hr in | rain 24hr in | rain mn in | humidity % | barometer mb |
| 20260509202425 | 60 | 245 | 16.0 | 28.0 | 0.00 | 0.00 | 0.00 | 77 | 1015.4 |
| 20260509201931 | 60 | 257 | 18.0 | 28.0 | 0.00 | 0.00 | 0.00 | 77 | 1015.3 |
| 20260509201439 | 60 | 292 | 16.0 | 28.0 | 0.00 | 0.00 | 0.00 | 76 | 1015.4 |
| 20260509200925 | 61 | 320 | 12.0 | 21.0 | 0.00 | 0.00 | 0.00 | 76 | 1015.5 |
| 20260509200431 | 61 | 268 | 11.0 | 24.0 | 0.00 | 0.00 | 0.00 | 75 | 1015.5 |
| 20260509195939 | 61 | 303 | 11.0 | 24.0 | 0.00 | 0.00 | 0.00 | 75 | 1015.6 |
| 20260509195455 | 62 | 282 | 7.0 | 20.0 | 0.00 | 0.00 | 0.00 | 75 | 1015.6 |
| 20260509194936 | 62 | 243 | 11.0 | 19.0 | 0.00 | 0.00 | 0.00 | 74 | 1015.6 |
| 20260509194421 | 62 | 280 | 9.0 | 14.0 | 0.00 | 0.00 | 0.00 | 74 | 1015.7 |
| 20260509193947 | 62 | 328 | 6.0 | 15.0 | 0.00 | 0.00 | 0.00 | 74 | 1015.7 |
| 20260509193435 | 62 | 333 | 9.0 | 15.0 | 0.00 | 0.00 | 0.00 | 73 | 1015.7 |
| 20260509192920 | 62 | 313 | 4.0 | 10.0 | 0.00 | 0.00 | 0.00 | 73 | 1015.8 |
| 20260509192446 | 62 | 308 | 4.0 | 11.0 | 0.00 | 0.00 | 0.00 | 73 | 1015.9 |
| 20260509191927 | 62 | 336 | 6.0 | 11.0 | 0.00 | 0.00 | 0.00 | 73 | 1015.8 |
| 20260509191433 | 62 | 78 | 4.0 | 7.0 | 0.00 | 0.00 | 0.00 | 75 | 1015.8 |
| 20260509190938 | 61 | 268 | 5.0 | 13.0 | 0.00 | 0.00 | 0.00 | 75 | 1015.8 |
| 20260509190455 | 61 | 254 | 7.0 | 14.0 | 0.00 | 0.00 | 0.00 | 75 | 1015.8 |
| 20260509185931 | 61 | 280 | 8.0 | 13.0 | 0.00 | 0.00 | 0.00 | 75 | 1015.9 |
| 20260509185435 | 61 | 299 | 6.0 | 13.0 | 0.00 | 0.00 | 0.00 | 76 | 1015.9 |
| 20260509184942 | 60 | 88 | 7.0 | 13.0 | 0.00 | 0.00 | 0.00 | 76 | 1016.0 |
| 20260509184444 | 60 | 202 | 5.0 | 15.0 | 0.00 | 0.00 | 0.00 | 76 | 1016.1 |
| 20260509183928 | 60 | 305 | 7.0 | 15.0 | 0.00 | 0.00 | 0.00 | 76 | 1016.0 |
| 20260509183502 | 60 | 294 | 7.0 | 13.0 | 0.00 | 0.00 | 0.00 | 76 | 1016.1 |
| 20260509182958 | 61 | 268 | 4.0 | 11.0 | 0.00 | 0.00 | 0.00 | 76 | 1016.0 |
| 20260509182422 | 60 | 297 | 5.0 | 11.0 | 0.00 | 0.00 | 0.00 | 76 | 1016.0 |
| 20260509181929 | 60 | 313 | 7.0 | 13.0 | 0.00 | 0.00 | 0.00 | 76 | 1016.0 |
| 20260509181500 | 60 | 299 | 8.0 | 13.0 | 0.00 | 0.00 | 0.00 | 76 | 1016.1 |
| 20260509180945 | 60 | 300 | 6.0 | 11.0 | 0.00 | 0.00 | 0.00 | 77 | 1016.1 |
| 20260509180428 | 60 | 280 | 6.0 | 11.0 | 0.00 | 0.00 | 0.00 | 77 | 1016.1 |
| 20260509175934 | 59 | 249 | 5.0 | 10.0 | 0.00 | 0.00 | 0.00 | 78 | 1016.1 |
| 20260509175420 | 59 | 330 | 6.0 | 10.0 | 0.00 | 0.00 | 0.00 | 78 | 1016.1 |
| 20260509174925 | 59 | 292 | 3.0 | 10.0 | 0.00 | 0.00 | 0.00 | 78 | 1016.2 |
| 20260509174449 | 59 | 322 | 6.0 | 11.0 | 0.00 | 0.00 | 0.00 | 78 | 1016.2 |
| 20260509173934 | 58 | 321 | 7.0 | 13.0 | 0.00 | 0.00 | 0.00 | 78 | 1016.2 |
| 20260509173437 | 58 | 294 | 6.0 | 13.0 | 0.00 | 0.00 | 0.00 | 78 | 1016.2 |
| 20260509172922 | 58 | 277 | 6.0 | 10.0 | 0.00 | 0.00 | 0.00 | 78 | 1016.1 |
| 20260509172430 | 57 | 258 | 4.0 | 10.0 | 0.00 | 0.00 | 0.00 | 80 | 1016.1 |
| 20260509172002 | 57 | 233 | 6.0 | 13.0 | 0.00 | 0.00 | 0.00 | 80 | 1016.1 |
| 20260509171451 | 57 | 229 | 6.0 | 13.0 | 0.00 | 0.00 | 0.00 | 79 | 1016.1 |
| 20260509170939 | 57 | 217 | 6.0 | 12.0 | 0.00 | 0.00 | 0.00 | 79 | 1016.1 |
| 20260509170423 | 58 | 236 | 3.0 | 10.0 | 0.00 | 0.00 | 0.00 | 78 | 1016.1 |
| 20260509165958 | 58 | 222 | 3.0 | 9.0 | 0.00 | 0.00 | 0.00 | 79 | 1016.1 |
| 20260509165422 | 58 | 268 | 2.0 | 9.0 | 0.00 | 0.00 | 0.00 | 79 | 1016.0 |
| 20260509164928 | 58 | 219 | 4.0 | 10.0 | 0.00 | 0.00 | 0.00 | 79 | 1016.1 |
| 20260509164435 | 58 | 211 | 6.0 | 10.0 | 0.00 | 0.00 | 0.00 | 79 | 1016.1 |
| 20260509163922 | 58 | 222 | 5.0 | 8.0 | 0.00 | 0.00 | 0.00 | 79 | 1016.0 |
| 20260509163426 | 58 | 222 | 4.0 | 8.0 | 0.00 | 0.00 | 0.00 | 79 | 1016.1 |
| 20260509162933 | 58 | 310 | 4.0 | 8.0 | 0.00 | 0.00 | 0.00 | 80 | 1016.1 |
| 20260509162439 | 58 | 256 | 3.0 | 8.0 | 0.00 | 0.00 | 0.00 | 81 | 1016.0 |
| 20260509161925 | 57 | 254 | 4.0 | 8.0 | 0.00 | 0.00 | 0.00 | 81 | 1016.0 |
| 20260509161452 | 57 | 276 | 4.0 | 8.0 | 0.00 | 0.00 | 0.00 | 82 | 1016.1 |
| 20260509160937 | 57 | 313 | 4.0 | 11.0 | 0.00 | 0.00 | 0.00 | 82 | 1016.0 |
| 20260509160421 | 56 | 282 | 2.0 | 11.0 | 0.00 | 0.00 | 0.00 | 83 | 1016.0 |
| 20260509155923 | 56 | 205 | 6.0 | 9.0 | 0.00 | 0.00 | 0.00 | 84 | 1016.1 |
| 20260509155428 | 56 | 293 | 3.0 | 8.0 | 0.00 | 0.00 | 0.00 | 84 | 1016.1 |
| 20260509154935 | 56 | 222 | 3.0 | 9.0 | 0.00 | 0.00 | 0.00 | 85 | 1016.1 |
| 20260509154423 | 55 | 210 | 3.0 | 7.0 | 0.00 | 0.00 | 0.00 | 85 | 1016.0 |
| 20260509153930 | 55 | 205 | 3.0 | 11.0 | 0.00 | 0.00 | 0.00 | 85 | 1015.9 |
| 20260509153437 | 55 | 210 | 4.0 | 8.0 | 0.00 | 0.00 | 0.00 | 85 | 1015.9 |
| 20260509152925 | 55 | 235 | 3.0 | 9.0 | 0.00 | 0.00 | 0.00 | 85 | 1015.9 |
| 20260509152426 | 55 | 231 | 2.0 | 9.0 | 0.00 | 0.00 | 0.00 | 85 | 1015.8 |
| 20260509151959 | 55 | 261 | 4.0 | 9.0 | 0.00 | 0.00 | 0.00 | 85 | 1015.9 |
| 20260509151455 | 55 | 244 | 3.0 | 9.0 | 0.00 | 0.00 | 0.00 | 85 | 1016.0 |
| 20260509150938 | 55 | 234 | 5.0 | 9.0 | 0.00 | 0.00 | 0.00 | 85 | 1016.0 |
| 20260509150424 | 55 | 195 | 4.0 | 8.0 | 0.00 | 0.00 | 0.00 | 86 | 1016.0 |
| 20260509145950 | 55 | 290 | 2.0 | 11.0 | 0.00 | 0.00 | 0.00 | 86 | 1016.0 |
| 20260509145431 | 55 | 237 | 4.0 | 11.0 | 0.00 | 0.00 | 0.00 | 86 | 1016.0 |
| 20260509144935 | 55 | 235 | 3.0 | 8.0 | 0.00 | 0.00 | 0.00 | 86 | 1016.0 |
| 20260509144439 | 54 | 233 | 3.0 | 7.0 | 0.00 | 0.00 | 0.00 | 86 | 1015.9 |
| 20260509143946 | 54 | 210 | 3.0 | 9.0 | 0.00 | 0.00 | 0.00 | 86 | 1015.9 |
| 20260509143433 | 54 | 222 | 4.0 | 9.0 | 0.00 | 0.00 | 0.00 | 86 | 1015.8 |
| 20260509142941 | 54 | 186 | 4.0 | 7.0 | 0.00 | 0.00 | 0.00 | 86 | 1015.9 |
| 20260509142426 | 54 | 213 | 4.0 | 7.0 | 0.00 | 0.00 | 0.00 | 86 | 1015.9 |
| 20260509141928 | 54 | 139 | 1.0 | 7.0 | 0.00 | 0.00 | 0.00 | 87 | 1015.8 |
| 20260509141434 | 54 | 155 | 4.0 | 7.0 | 0.00 | 0.00 | 0.00 | 87 | 1015.8 |
| 20260509140938 | 54 | 214 | 2.0 | 5.0 | 0.00 | 0.00 | 0.00 | 86 | 1015.7 |
| 20260509140426 | 54 | 231 | 2.0 | 5.0 | 0.00 | 0.00 | 0.00 | 86 | 1015.7 |
| 20260509135931 | 54 | 235 | 3.0 | 8.0 | 0.00 | 0.00 | 0.00 | 86 | 1015.6 |
| 20260509135439 | 54 | 216 | 4.0 | 8.0 | 0.00 | 0.00 | 0.00 | 86 | 1015.6 |
| 20260509134924 | 54 | 244 | 4.0 | 9.0 | 0.00 | 0.00 | 0.00 | 87 | 1015.4 |
| 20260509134427 | 54 | 215 | 3.0 | 6.0 | 0.00 | 0.00 | 0.00 | 87 | 1015.5 |
| 20260509133934 | 54 | 249 | 2.0 | 6.0 | 0.00 | 0.00 | 0.00 | 87 | 1015.5 |
| 20260509133422 | 54 | 163 | 1.0 | 8.0 | 0.00 | 0.00 | 0.00 | 87 | 1015.5 |
| 20260509132928 | 54 | 231 | 4.0 | 7.0 | 0.00 | 0.00 | 0.00 | 87 | 1015.5 |
| 20260509132436 | 54 | 206 | 3.0 | 7.0 | 0.00 | 0.00 | 0.00 | 87 | 1015.5 |
| 20260509131922 | 54 | 186 | 1.0 | 5.0 | 0.00 | 0.00 | 0.00 | 87 | 1015.5 |
| 20260509131427 | 54 | 209 | 2.0 | 5.0 | 0.00 | 0.00 | 0.00 | 87 | 1015.4 |
| 20260509130933 | 54 | 339 | 1.0 | 7.0 | 0.00 | 0.00 | 0.00 | 87 | 1015.5 |
| 20260509130437 | 53 | 301 | 2.0 | 7.0 | 0.00 | 0.00 | 0.00 | 87 | 1015.4 |
| 20260509125923 | 53 | 211 | 2.0 | 9.0 | 0.00 | 0.00 | 0.00 | 87 | 1015.3 |
| 20260509125430 | 53 | 171 | 3.0 | 6.0 | 0.00 | 0.00 | 0.00 | 87 | 1015.3 |
| 20260509124938 | 53 | 17 | 2.0 | 7.0 | 0.00 | 0.00 | 0.00 | 87 | 1015.3 |
| 20260509124444 | 53 | 219 | 3.0 | 6.0 | 0.00 | 0.00 | 0.00 | 87 | 1015.2 |
| 20260509123959 | 53 | 360 | 1.0 | 4.0 | 0.00 | 0.00 | 0.00 | 87 | 1015.2 |
| 20260509123447 | 53 | 75 | 2.0 | 6.0 | 0.00 | 0.00 | 0.00 | 87 | 1015.2 |
| 20260509122958 | 53 | 230 | 3.0 | 7.0 | 0.00 | 0.00 | 0.00 | 87 | 1015.3 |
| 20260509122453 | 53 | 134 | 2.0 | 9.0 | 0.00 | 0.00 | 0.00 | 87 | 1015.3 |
| 20260509121939 | 53 | 240 | 3.0 | 9.0 | 0.00 | 0.00 | 0.00 | 87 | 1015.3 |
| 20260509121428 | 53 | 349 | 2.0 | 6.0 | 0.00 | 0.00 | 0.00 | 87 | 1015.3 |
| 20260509120956 | 53 | 83 | 2.0 | 6.0 | 0.00 | 0.00 | 0.00 | 87 | 1015.3 |
| 20260509120444 | 53 | 102 | 4.0 | 6.0 | 0.00 | 0.00 | 0.00 | 87 | 1015.3 |
| 20260509115926 | 53 | 330 | 3.0 | 6.0 | 0.00 | 0.00 | 0.00 | 87 | 1015.3 |
| 20260509115431 | 53 | 38 | 2.0 | 6.0 | 0.00 | 0.00 | 0.00 | 87 | 1015.3 |
| 20260509114938 | 53 | 112 | 3.0 | 7.0 | 0.00 | 0.00 | 0.00 | 87 | 1015.3 |
| 20260509114426 | 53 | 339 | 4.0 | 7.0 | 0.00 | 0.00 | 0.00 | 87 | 1015.3 |
| 20260509113935 | 53 | 109 | 5.0 | 7.0 | 0.00 | 0.00 | 0.00 | 87 | 1015.3 |
| 20260509113422 | 53 | 289 | 1.0 | 4.0 | 0.00 | 0.00 | 0.00 | 87 | 1015.4 |
| 20260509112929 | 53 | 134 | 2.0 | 6.0 | 0.00 | 0.00 | 0.00 | 87 | 1015.4 |
| 20260509112431 | 53 | 219 | 3.0 | 6.0 | 0.00 | 0.00 | 0.00 | 87 | 1015.4 |
| 20260509111936 | 53 | 75 | 4.0 | 5.0 | 0.00 | 0.00 | 0.00 | 87 | 1015.3 |
| 20260509111422 | 53 | 34 | 2.0 | 6.0 | 0.00 | 0.00 | 0.00 | 87 | 1015.3 |
| 20260509110931 | 53 | 337 | 3.0 | 6.0 | 0.00 | 0.00 | 0.00 | 87 | 1015.4 |
| 20260509110434 | 53 | 8 | 2.0 | 6.0 | 0.00 | 0.00 | 0.00 | 87 | 1015.4 |
| 20260509105921 | 53 | 81 | 2.0 | 10.0 | 0.00 | 0.00 | 0.00 | 87 | 1015.4 |
| 20260509105427 | 53 | 302 | 3.0 | 10.0 | 0.00 | 0.00 | 0.00 | 87 | 1015.4 |
| 20260509104931 | 53 | 22 | 1.0 | 5.0 | 0.00 | 0.00 | 0.00 | 87 | 1015.4 |
| 20260509104432 | 53 | 74 | 1.0 | 4.0 | 0.00 | 0.00 | 0.00 | 86 | 1015.4 |
| 20260509103938 | 53 | 268 | 3.0 | 4.0 | 0.00 | 0.00 | 0.00 | 86 | 1015.4 |
| 20260509103424 | 53 | 134 | 1.0 | 6.0 | 0.00 | 0.00 | 0.00 | 86 | 1015.5 |
| 20260509102932 | 53 | 196 | 2.0 | 9.0 | 0.00 | 0.00 | 0.00 | 86 | 1015.5 |
| 20260509102440 | 53 | 45 | 3.0 | 9.0 | 0.00 | 0.00 | 0.00 | 86 | 1015.4 |
| 20260509101927 | 53 | 233 | 3.0 | 8.0 | 0.00 | 0.00 | 0.00 | 86 | 1015.5 |
| 20260509101434 | 53 | 107 | 4.0 | 8.0 | 0.00 | 0.00 | 0.00 | 86 | 1015.5 |
| 20260509100936 | 53 | 253 | 3.0 | 14.0 | 0.00 | 0.00 | 0.00 | 86 | 1015.6 |
| 20260509100452 | 53 | 134 | 4.0 | 11.0 | 0.00 | 0.00 | 0.00 | 86 | 1015.5 |
| 20260509095938 | 53 | 231 | 5.0 | 11.0 | 0.00 | 0.00 | 0.00 | 86 | 1015.5 |
| 20260509095425 | 53 | 222 | 2.0 | 5.0 | 0.00 | 0.00 | 0.00 | 86 | 1015.5 |
| 20260509094952 | 53 | 45 | 1.0 | 4.0 | 0.00 | 0.00 | 0.00 | 85 | 1015.6 |
| 20260509094437 | 53 | 268 | 1.0 | 5.0 | 0.00 | 0.00 | 0.00 | 86 | 1015.6 |
| 20260509093922 | 53 | 58 | 2.0 | 8.0 | 0.00 | 0.00 | 0.00 | 85 | 1015.7 |
| 20260509093422 | 53 | 224 | 4.0 | 8.0 | 0.00 | 0.00 | 0.00 | 85 | 1015.8 |
| 20260509092928 | 53 | 116 | 1.0 | 4.0 | 0.00 | 0.00 | 0.00 | 85 | 1015.8 |
| 20260509092434 | 53 | 192 | 2.0 | 9.0 | 0.00 | 0.00 | 0.00 | 85 | 1015.9 |
| 20260509091940 | 53 | 231 | 4.0 | 9.0 | 0.00 | 0.00 | 0.00 | 85 | 1015.9 |
| 20260509091426 | 53 | 177 | 1.0 | 6.0 | 0.00 | 0.00 | 0.00 | 85 | 1015.8 |
| 20260509090932 | 53 | 97 | 3.0 | 6.0 | 0.00 | 0.00 | 0.00 | 85 | 1015.8 |
| 20260509090438 | 53 | 94 | 3.0 | 4.0 | 0.00 | 0.00 | 0.00 | 85 | 1015.6 |
| 20260509085926 | 53 | 73 | 2.0 | 4.0 | 0.00 | 0.00 | 0.00 | 85 | 1015.6 |
| 20260509085430 | 53 | 75 | 2.0 | 4.0 | 0.00 | 0.00 | 0.00 | 85 | 1015.5 |
| 20260509084938 | 53 | 88 | 2.0 | 4.0 | 0.00 | 0.00 | 0.00 | 85 | 1015.6 |
| 20260509084454 | 53 | 151 | 2.0 | 4.0 | 0.00 | 0.00 | 0.00 | 85 | 1015.7 |
| 20260509083922 | 53 | 111 | 3.0 | 4.0 | 0.00 | 0.00 | 0.00 | 85 | 1015.7 |
| 20260509083430 | 53 | 163 | 2.0 | 4.0 | 0.00 | 0.00 | 0.00 | 85 | 1015.7 |
| 20260509082937 | 53 | 62 | 3.0 | 5.0 | 0.00 | 0.00 | 0.00 | 85 | 1015.8 |
| 20260509082456 | 53 | 45 | 3.0 | 5.0 | 0.00 | 0.00 | 0.00 | 85 | 1015.8 |
| 20260509081937 | 53 | 163 | 2.0 | 3.0 | 0.00 | 0.00 | 0.00 | 85 | 1015.9 |
| 20260509081444 | 53 | 212 | 1.0 | 3.0 | 0.00 | 0.00 | 0.00 | 85 | 1015.9 |
| 20260509080958 | 53 | 41 | 2.0 | 3.0 | 0.00 | 0.00 | 0.00 | 85 | 1015.9 |
| 20260509080423 | 53 | 141 | 2.0 | 6.0 | 0.00 | 0.00 | 0.00 | 84 | 1015.9 |
| 20260509075950 | 53 | 278 | 2.0 | 6.0 | 0.00 | 0.00 | 0.00 | 84 | 1015.9 |
| 20260509075433 | 54 | 299 | 3.0 | 9.0 | 0.00 | 0.00 | 0.00 | 84 | 1016.0 |
| 20260509074933 | 54 | 288 | 3.0 | 9.0 | 0.00 | 0.00 | 0.00 | 84 | 1016.1 |
| 20260509074420 | 54 | 147 | 3.0 | 7.0 | 0.00 | 0.00 | 0.00 | 84 | 1016.0 |
| 20260509073927 | 54 | 48 | 3.0 | 7.0 | 0.00 | 0.00 | 0.00 | 84 | 1016.1 |
| 20260509073431 | 54 | 351 | 2.0 | 5.0 | 0.00 | 0.00 | 0.00 | 84 | 1016.1 |
| 20260509072920 | 54 | 88 | 3.0 | 5.0 | 0.00 | 0.00 | 0.00 | 84 | 1016.0 |
| 20260509072447 | 54 | 48 | 3.0 | 5.0 | 0.00 | 0.00 | 0.00 | 84 | 1016.1 |
| 20260509071932 | 54 | 45 | 1.0 | 6.0 | 0.00 | 0.00 | 0.00 | 84 | 1016.2 |
| 20260509071435 | 54 | 101 | 3.0 | 6.0 | 0.00 | 0.00 | 0.00 | 84 | 1016.1 |
| 20260509070922 | 54 | 300 | 3.0 | 8.0 | 0.00 | 0.00 | 0.00 | 84 | 1016.1 |
| 20260509070431 | 54 | 62 | 3.0 | 10.0 | 0.00 | 0.00 | 0.00 | 84 | 1016.1 |
| 20260509065937 | 54 | 284 | 4.0 | 13.0 | 0.00 | 0.00 | 0.00 | 84 | 1016.1 |
| 20260509065424 | 54 | 225 | 6.0 | 12.0 | 0.00 | 0.00 | 0.00 | 84 | 1016.3 |
| 20260509064953 | 54 | 31 | 2.0 | 10.0 | 0.00 | 0.00 | 0.00 | 84 | 1016.4 |
| 20260509064420 | 54 | 273 | 6.0 | 10.0 | 0.00 | 0.00 | 0.00 | 84 | 1016.3 |
| 20260509063924 | 54 | 360 | 3.0 | 5.0 | 0.00 | 0.00 | 0.00 | 84 | 1016.4 |
| 20260509063431 | 54 | 134 | 3.0 | 13.0 | 0.00 | 0.00 | 0.00 | 84 | 1016.3 |
| 20260509062938 | 54 | 5 | 4.0 | 13.0 | 0.00 | 0.00 | 0.00 | 84 | 1016.4 |
| 20260509062425 | 54 | 239 | 4.0 | 10.0 | 0.00 | 0.00 | 0.00 | 85 | 1016.3 |
| 20260509061934 | 54 | 263 | 6.0 | 10.0 | 0.00 | 0.00 | 0.00 | 85 | 1016.5 |
| 20260509061421 | 54 | 242 | 5.0 | 9.0 | 0.00 | 0.00 | 0.00 | 85 | 1016.4 |
| 20260509060927 | 54 | 282 | 3.0 | 11.0 | 0.00 | 0.00 | 0.00 | 85 | 1016.5 |
| 20260509060430 | 54 | 134 | 2.0 | 11.0 | 0.00 | 0.00 | 0.00 | 85 | 1016.5 |
| 20260509055936 | 54 | 277 | 6.0 | 15.0 | 0.00 | 0.00 | 0.00 | 85 | 1016.6 |
| 20260509055422 | 54 | 261 | 5.0 | 15.0 | 0.00 | 0.00 | 0.00 | 85 | 1016.6 |
| 20260509054958 | 54 | 268 | 6.0 | 15.0 | 0.00 | 0.00 | 0.00 | 85 | 1016.6 |
| 20260509054423 | 54 | 263 | 11.0 | 15.0 | 0.00 | 0.00 | 0.00 | 85 | 1016.6 |
| 20260509053932 | 54 | 280 | 6.0 | 13.0 | 0.00 | 0.00 | 0.00 | 85 | 1016.6 |
| 20260509053439 | 54 | 256 | 5.0 | 18.0 | 0.00 | 0.00 | 0.00 | 85 | 1016.7 |
| 20260509052923 | 54 | 207 | 6.0 | 18.0 | 0.00 | 0.00 | 0.00 | 85 | 1016.6 |
| 20260509052425 | 54 | 273 | 7.0 | 16.0 | 0.00 | 0.00 | 0.00 | 85 | 1016.6 |
| 20260509051933 | 54 | 264 | 9.0 | 16.0 | 0.00 | 0.00 | 0.00 | 84 | 1016.5 |
| 20260509051440 | 54 | 232 | 8.0 | 20.0 | 0.00 | 0.00 | 0.00 | 84 | 1016.6 |
| 20260509050955 | 54 | 221 | 12.0 | 20.0 | 0.00 | 0.00 | 0.00 | 84 | 1016.5 |
| 20260509050439 | 54 | 268 | 9.0 | 21.0 | 0.00 | 0.00 | 0.00 | 84 | 1016.6 |
| 20260509045927 | 54 | 265 | 9.0 | 20.0 | 0.00 | 0.00 | 0.00 | 84 | 1016.5 |
| 20260509045434 | 54 | 270 | 10.0 | 20.0 | 0.00 | 0.00 | 0.00 | 84 | 1016.5 |
| 20260509044935 | 54 | 242 | 7.0 | 21.0 | 0.00 | 0.00 | 0.00 | 84 | 1016.3 |
| 20260509044420 | 54 | 252 | 12.0 | 21.0 | 0.00 | 0.00 | 0.00 | 84 | 1016.4 |
| 20260509043926 | 54 | 257 | 7.0 | 15.0 | 0.00 | 0.00 | 0.00 | 84 | 1016.3 |
| 20260509043424 | 54 | 242 | 6.0 | 16.0 | 0.00 | 0.00 | 0.00 | 84 | 1016.4 |
| 20260509042930 | 54 | 232 | 6.0 | 18.0 | 0.00 | 0.00 | 0.00 | 84 | 1016.3 |
| 20260509042437 | 54 | 253 | 9.0 | 19.0 | 0.00 | 0.00 | 0.00 | 84 | 1016.3 |
| 20260509041926 | 54 | 276 | 10.0 | 22.0 | 0.00 | 0.00 | 0.00 | 84 | 1016.2 |
| 20260509041429 | 54 | 188 | 13.0 | 22.0 | 0.00 | 0.00 | 0.00 | 84 | 1016.2 |
| 20260509040935 | 54 | 275 | 9.0 | 19.0 | 0.00 | 0.00 | 0.00 | 84 | 1016.2 |
| 20260509040420 | 54 | 231 | 6.0 | 18.0 | 0.00 | 0.00 | 0.00 | 84 | 1016.2 |
| 20260509035926 | 54 | 292 | 8.0 | 16.0 | 0.00 | 0.00 | 0.00 | 84 | 1016.1 |
| 20260509035424 | 54 | 241 | 7.0 | 15.0 | 0.00 | 0.00 | 0.00 | 84 | 1016.1 |
| 20260509034932 | 54 | 257 | 6.0 | 16.0 | 0.00 | 0.00 | 0.00 | 84 | 1016.1 |
| 20260509034439 | 54 | 275 | 6.0 | 20.0 | 0.00 | 0.00 | 0.00 | 84 | 1016.2 |
| 20260509033923 | 54 | 240 | 8.0 | 20.0 | 0.00 | 0.00 | 0.00 | 83 | 1016.2 |
| 20260509033440 | 54 | 268 | 9.0 | 20.0 | 0.00 | 0.00 | 0.00 | 83 | 1016.2 |
| 20260509032925 | 54 | 250 | 10.0 | 20.0 | 0.00 | 0.00 | 0.00 | 83 | 1016.0 |
| 20260509032435 | 54 | 224 | 12.0 | 20.0 | 0.00 | 0.00 | 0.00 | 83 | 1016.0 |
| 20260509031940 | 54 | 281 | 9.0 | 16.0 | 0.00 | 0.00 | 0.00 | 83 | 1015.9 |
| 20260509031449 | 54 | 242 | 9.0 | 19.0 | 0.00 | 0.00 | 0.00 | 83 | 1015.9 |
| 20260509030935 | 55 | 236 | 9.0 | 19.0 | 0.00 | 0.00 | 0.00 | 83 | 1015.9 |
| 20260509030436 | 55 | 256 | 9.0 | 19.0 | 0.00 | 0.00 | 0.00 | 83 | 1015.8 |
| 20260509025921 | 55 | 219 | 9.0 | 17.0 | 0.00 | 0.00 | 0.00 | 83 | 1015.8 |
| 20260509025428 | 55 | 276 | 9.0 | 21.0 | 0.00 | 0.00 | 0.00 | 82 | 1015.8 |
| 20260509024933 | 55 | 306 | 9.0 | 21.0 | 0.00 | 0.00 | 0.00 | 82 | 1015.8 |
| 20260509024420 | 55 | 250 | 10.0 | 18.0 | 0.00 | 0.00 | 0.00 | 82 | 1015.8 |
| 20260509023926 | 55 | 240 | 9.0 | 24.0 | 0.00 | 0.00 | 0.00 | 82 | 1015.9 |
| 20260509023433 | 55 | 223 | 10.0 | 23.0 | 0.00 | 0.00 | 0.00 | 82 | 1015.8 |
| 20260509022938 | 55 | 213 | 8.0 | 21.0 | 0.00 | 0.00 | 0.00 | 82 | 1015.8 |
| 20260509022450 | 55 | 256 | 12.0 | 23.0 | 0.00 | 0.00 | 0.00 | 81 | 1015.9 |
| 20260509021935 | 55 | 272 | 12.0 | 23.0 | 0.00 | 0.00 | 0.00 | 81 | 1015.8 |
| 20260509021453 | 56 | 226 | 10.0 | 23.0 | 0.00 | 0.00 | 0.00 | 81 | 1015.8 |
| 20260509020921 | 56 | 256 | 11.0 | 27.0 | 0.00 | 0.00 | 0.00 | 81 | 1015.8 |
| 20260509020425 | 56 | 238 | 15.0 | 27.0 | 0.00 | 0.00 | 0.00 | 81 | 1015.8 |
| 20260509015951 | 56 | 294 | 13.0 | 26.0 | 0.00 | 0.00 | 0.00 | 80 | 1015.7 |
| 20260509015432 | 56 | 280 | 12.0 | 26.0 | 0.00 | 0.00 | 0.00 | 80 | 1015.8 |
| 20260509014938 | 56 | 245 | 13.0 | 24.0 | 0.00 | 0.00 | 0.00 | 80 | 1015.9 |
| 20260509014454 | 57 | 243 | 14.0 | 30.0 | 0.00 | 0.00 | 0.00 | 80 | 1015.8 |
| 20260509013939 | 57 | 252 | 12.0 | 30.0 | 0.00 | 0.00 | 0.00 | 80 | 1015.9 |
| 20260509013425 | 57 | 271 | 16.0 | 25.0 | 0.00 | 0.00 | 0.00 | 80 | 1016.0 |
| 20260509012930 | 57 | 292 | 14.0 | 23.0 | 0.00 | 0.00 | 0.00 | 79 | 1016.2 |
| 20260509012434 | 57 | 270 | 11.0 | 25.0 | 0.00 | 0.00 | 0.00 | 79 | 1016.1 |
| 20260509011921 | 57 | 277 | 15.0 | 27.0 | 0.00 | 0.00 | 0.00 | 79 | 1016.1 |
| 20260509011423 | 57 | 269 | 13.0 | 27.0 | 0.00 | 0.00 | 0.00 | 79 | 1016.1 |
| 20260509010951 | 57 | 284 | 14.0 | 25.0 | 0.00 | 0.00 | 0.00 | 79 | 1016.1 |
| 20260509010438 | 58 | 242 | 15.0 | 25.0 | 0.00 | 0.00 | 0.00 | 79 | 1016.1 |
| 20260509005923 | 58 | 298 | 12.0 | 23.0 | 0.00 | 0.00 | 0.00 | 79 | 1016.1 |
| 20260509005429 | 57 | 268 | 15.0 | 27.0 | 0.00 | 0.00 | 0.00 | 79 | 1016.1 |
| 20260509004933 | 57 | 275 | 12.0 | 27.0 | 0.00 | 0.00 | 0.00 | 79 | 1016.1 |
| 20260509004420 | 58 | 251 | 14.0 | 27.0 | 0.00 | 0.00 | 0.00 | 79 | 1016.2 |
| 20260509003922 | 57 | 277 | 14.0 | 34.0 | 0.00 | 0.00 | 0.00 | 79 | 1016.2 |
| 20260509003430 | 57 | 257 | 18.0 | 34.0 | 0.00 | 0.00 | 0.00 | 79 | 1016.1 |
| 20260509002938 | 57 | 257 | 17.0 | 29.0 | 0.00 | 0.00 | 0.00 | 79 | 1016.1 |
| 20260509002424 | 58 | 254 | 14.0 | 25.0 | 0.00 | 0.00 | 0.00 | 79 | 1016.2 |
| 20260509001927 | 57 | 254 | 13.0 | 27.0 | 0.00 | 0.00 | 0.00 | 79 | 1016.2 |
| 20260509001432 | 57 | 271 | 14.0 | 33.0 | 0.00 | 0.00 | 0.00 | 79 | 1016.2 |
| 20260509000937 | 57 | 258 | 18.0 | 33.0 | 0.00 | 0.00 | 0.00 | 79 | 1016.3 |
| 20260509000436 | 57 | 276 | 18.0 | 29.0 | 0.00 | 0.00 | 0.00 | 79 | 1016.2 |
| 20260508235942 | 58 | 268 | 17.0 | 29.0 | 0.00 | 0.00 | 0.00 | 79 | 1016.2 |
| 20260508235448 | 58 | 277 | 14.0 | 31.0 | 0.00 | 0.00 | 0.00 | 79 | 1016.2 |
| 20260508234931 | 58 | 270 | 18.0 | 29.0 | 0.00 | 0.00 | 0.00 | 78 | 1016.2 |
| 20260508234438 | 58 | 263 | 17.0 | 28.0 | 0.00 | 0.00 | 0.00 | 78 | 1016.2 |
| 20260508233925 | 58 | 251 | 17.0 | 29.0 | 0.00 | 0.00 | 0.00 | 78 | 1016.4 |
| 20260508233427 | 59 | 242 | 15.0 | 29.0 | 0.00 | 0.00 | 0.00 | 78 | 1016.4 |
| 20260508232934 | 59 | 237 | 15.0 | 28.0 | 0.00 | 0.00 | 0.00 | 78 | 1016.5 |
| 20260508232451 | 59 | 251 | 17.0 | 29.0 | 0.00 | 0.00 | 0.00 | 77 | 1016.7 |
| 20260508231938 | 59 | 265 | 14.0 | 30.0 | 0.00 | 0.00 | 0.00 | 77 | 1016.6 |
| 20260508231424 | 59 | 263 | 15.0 | 30.0 | 0.00 | 0.00 | 0.00 | 76 | 1016.7 |
| 20260508230931 | 60 | 251 | 12.0 | 26.0 | 0.00 | 0.00 | 0.00 | 77 | 1016.8 |
| 20260508230433 | 60 | 262 | 15.0 | 26.0 | 0.00 | 0.00 | 0.00 | 76 | 1016.8 |
| 20260508225935 | 60 | 262 | 10.0 | 21.0 | 0.00 | 0.00 | 0.00 | 76 | 1017.0 |
| 20260508225420 | 60 | 237 | 10.0 | 23.0 | 0.00 | 0.00 | 0.00 | 76 | 1017.2 |
| 20260508224930 | 60 | 261 | 13.0 | 23.0 | 0.00 | 0.00 | 0.00 | 76 | 1017.3 |
| 20260508224438 | 60 | 313 | 13.0 | 26.0 | 0.00 | 0.00 | 0.00 | 76 | 1017.4 |
| 20260508223924 | 60 | 237 | 10.0 | 20.0 | 0.00 | 0.00 | 0.00 | 76 | 1017.4 |
| 20260508223431 | 60 | 308 | 10.0 | 23.0 | 0.00 | 0.00 | 0.00 | 76 | 1017.4 |
| 20260508222935 | 60 | 270 | 13.0 | 23.0 | 0.00 | 0.00 | 0.00 | 76 | 1017.4 |
| 20260508222438 | 60 | 275 | 13.0 | 20.0 | 0.00 | 0.00 | 0.00 | 76 | 1017.5 |
| 20260508221942 | 61 | 315 | 9.0 | 22.0 | 0.00 | 0.00 | 0.00 | 76 | 1017.6 |
| 20260508221428 | 60 | 284 | 13.0 | 22.0 | 0.00 | 0.00 | 0.00 | 76 | 1017.7 |
| 20260508220936 | 60 | 282 | 13.0 | 22.0 | 0.00 | 0.00 | 0.00 | 76 | 1017.6 |
| 20260508220424 | 60 | 270 | 13.0 | 26.0 | 0.00 | 0.00 | 0.00 | 76 | 1017.7 |
| 20260508215959 | 60 | 282 | 15.0 | 26.0 | 0.00 | 0.00 | 0.00 | 76 | 1017.8 |
| 20260508215426 | 60 | 294 | 14.0 | 24.0 | 0.00 | 0.00 | 0.00 | 76 | 1017.9 |
| 20260508214935 | 60 | 275 | 13.0 | 23.0 | 0.00 | 0.00 | 0.00 | 76 | 1017.9 |
| 20260508214437 | 60 | 299 | 13.0 | 25.0 | 0.00 | 0.00 | 0.00 | 76 | 1017.9 |
| 20260508213925 | 59 | 272 | 13.0 | 25.0 | 0.00 | 0.00 | 0.00 | 77 | 1018.0 |
| 20260508213458 | 59 | 223 | 14.0 | 25.0 | 0.00 | 0.00 | 0.00 | 77 | 1018.0 |
| 20260508212924 | 59 | 265 | 16.0 | 26.0 | 0.00 | 0.00 | 0.00 | 77 | 1018.0 |
| 20260508212431 | 59 | 278 | 17.0 | 26.0 | 0.00 | 0.00 | 0.00 | 77 | 1018.0 |
| 20260508211938 | 59 | 244 | 16.0 | 24.0 | 0.00 | 0.00 | 0.00 | 76 | 1018.1 |
| 20260508211423 | 60 | 268 | 14.0 | 23.0 | 0.00 | 0.00 | 0.00 | 76 | 1018.1 |
| 20260508210927 | 60 | 251 | 12.0 | 25.0 | 0.00 | 0.00 | 0.00 | 77 | 1018.2 |
| 20260508210435 | 59 | 259 | 13.0 | 25.0 | 0.00 | 0.00 | 0.00 | 77 | 1018.2 |
| 20260508205923 | 59 | 229 | 15.0 | 23.0 | 0.00 | 0.00 | 0.00 | 77 | 1018.2 |
| 20260508205432 | 59 | 231 | 13.0 | 23.0 | 0.00 | 0.00 | 0.00 | 76 | 1018.2 |
| 20260508204922 | 60 | 243 | 12.0 | 22.0 | 0.00 | 0.00 | 0.00 | 76 | 1018.3 |
| 20260508204428 | 60 | 277 | 10.0 | 19.0 | 0.00 | 0.00 | 0.00 | 76 | 1018.3 |
| 20260508203935 | 60 | 268 | 11.0 | 19.0 | 0.00 | 0.00 | 0.00 | 76 | 1018.4 |
| 20260508203422 | 60 | 285 | 10.0 | 18.0 | 0.00 | 0.00 | 0.00 | 76 | 1018.4 |
| 20260508202924 | 60 | 268 | 11.0 | 19.0 | 0.00 | 0.00 | 0.00 | 76 | 1018.5 |